Wind_Speed
68 69 69 69 69 69 69 69 70 71 71 72 72 72 73 73 73 72 72 73 75 75 76 77 78 79 80 80 81 82 83 83 84 84 85 86 86 87 86 85 83 78 71 68 71 73 64 61 64 64 61 56 53 49 44 41 39 37 39 40 39 40 40 40 41 41 41 42 43 44 47 48 42 36 32 30 29 29 28 26 26 25 26 27 26
70 70 71 71 71 71 71 71 72 72 73 73 73 73 74 73 73 73 74 75 76 76 77 79 81 82 82 82 83 83 83 84 84 85 87 86 86 86 85 83 78 71 66 68 71 67 61 64 66 64 59 53 50 46 43 41 35 33 36 37 38 39 40 40 41 42 42 42 43 45 47 48 45 40 35 31 29 28 27 26 25 25 26 25 24
71 72 72 72 72 72 73 73 74 74 75 75 75 74 75 74 74 75 76 77 77 78 79 81 83 83 84 84 84 84 84 84 85 86 86 85 85 84 82 77 70 65 65 68 68 65 62 65 65 62 57 51 47 46 46 40 32 30 33 36 38 38 40 40 41 42 42 42 44 46 48 49 50 46 38 33 29 28 27 25 24 24 25 24 23
72 73 73 73 74 74 75 75 76 76 76 76 75 74 74 74 75 76 77 78 79 80 81 82 83 84 85 84 83 84 86 86 86 85 84 83 81 78 74 69 65 63 67 68 66 65 63 64 64 59 53 48 47 49 46 37 29 29 33 36 38 39 40 41 41 42 43 44 45 47 50 51 52 49 40 34 30 28 26 25 23 23 24 23 23
73 74 74 74 75 76 76 77 77 77 76 75 74 74 75 75 76 78 79 80 80 81 81 83 84 84 84 84 85 86 87 85 84 82 79 76 73 69 65 63 62 64 69 69 67 64 62 64 60 53 50 47 48 48 41 31 26 29 34 36 38 40 40 41 42 43 44 45 47 50 53 52 48 43 38 33 30 28 26 25 24 23 23 22 22
73 74 74 75 76 76 77 78 77 76 76 75 75 76 77 77 78 80 81 80 80 81 82 83 83 84 84 86 87 87 85 82 79 76 72 69 67 65 63 61 62 65 69 70 68 64 63 62 54 49 48 47 48 43 34 27 24 29 34 36 38 40 41 42 43 45 45 47 50 51 49 44 39 38 36 31 29 28 27 25 24 23 23 22 22
73 73 74 75 76 77 78 77 76 75 75 75 76 77 78 78 80 81 80 80 82 83 84 85 85 85 87 88 87 83 78 76 74 71 69 70 71 70 64 61 63 67 69 69 66 62 62 57 50 49 47 47 45 39 31 25 24 30 34 37 39 41 43 44 45 46 47 49 51 47 42 36 33 35 33 29 28 28 27 26 25 24 22 21 21
73 74 75 76 76 77 77 76 75 75 75 75 77 78 79 79 80 80 80 82 85 86 86 86 86 87 87 85 81 76 73 74 76 75 75 77 78 77 70 65 65 66 68 66 63 62 60 52 48 48 47 46 42 36 30 25 26 31 35 38 40 42 43 44 45 45 48 50 48 43 39 34 31 33 32 28 28 28 27 26 25 24 22 21 22
74 75 76 77 76 77 77 77 77 76 76 77 77 78 78 78 79 80 83 85 87 87 86 86 86 84 81 77 75 76 78 80 82 81 81 82 81 78 71 68 67 65 64 63 63 61 55 49 47 47 46 42 36 30 26 26 30 34 37 40 42 43 43 44 45 46 48 50 45 40 37 33 30 32 31 28 29 28 26 26 25 24 22 21 22
77 78 78 78 78 78 77 76 76 75 76 76 76 76 77 78 80 83 85 86 87 86 85 84 82 78 76 77 80 83 85 85 84 83 82 79 75 69 64 64 64 62 61 62 63 58 51 48 46 46 43 37 33 26 25 30 33 36 40 41 43 43 42 43 45 46 47 47 41 36 34 32 31 31 31 28 29 29 26 26 26 24 23 21 22
79 79 80 80 80 79 77 76 75 76 76 77 77 78 80 82 84 86 86 85 84 83 82 81 80 79 80 82 85 86 87 86 83 79 75 70 66 63 61 60 60 60 62 63 59 53 49 47 46 43 38 36 34 27 27 32 35 38 40 41 41 39 39 40 41 40 39 38 34 32 31 30 30 31 31 30 29 29 28 26 26 25 23 21 22
80 81 81 82 81 80 78 78 78 79 81 82 83 84 85 86 86 84 82 81 82 83 84 83 82 81 81 83 86 88 90 85 77 71 67 63 62 62 60 60 61 61 62 59 54 51 48 45 43 39 36 36 32 26 28 33 35 37 37 36 35 34 35 36 34 33 34 32 29 30 30 29 28 29 30 29 28 29 29 26 26 25 23 22 23
82 83 83 83 83 82 81 82 84 85 87 87 87 86 86 84 82 80 79 82 84 85 84 82 80 81 84 87 90 90 85 75 67 64 63 63 63 61 60 61 60 59 58 54 51 49 44 41 39 37 36 35 29 25 26 29 31 30 30 30 31 32 34 33 32 33 33 31 29 29 29 27 26 26 26 27 26 28 28 26 26 25 23 22 23
84 84 85 85 85 86 86 87 88 88 88 87 86 85 83 82 81 82 84 86 85 83 82 82 83 86 88 88 86 80 70 62 59 59 61 62 60 58 58 57 55 55 54 50 47 44 40 38 37 36 35 34 31 28 27 29 31 31 31 31 33 35 35 35 33 34 34 31 29 29 29 27 24 24 23 23 22 24 27 27 26 24 23 23 23
86 86 86 86 86 87 87 87 87 87 86 85 85 84 84 84 85 87 87 87 86 85 85 86 87 87 85 82 77 69 59 57 57 56 56 55 53 52 52 52 52 53 50 45 42 40 38 37 36 37 37 36 33 30 30 31 32 34 35 35 36 36 37 37 35 34 34 31 28 28 28 26 24 22 21 21 21 21 24 26 26 23 23 24 23
86 87 87 87 86 86 86 86 87 87 87 87 86 86 87 87 89 89 89 89 88 88 87 87 86 83 77 72 70 64 58 58 58 55 53 52 52 52 50 51 52 49 45 41 38 37 36 37 38 38 38 36 33 30 30 30 34 39 39 37 38 38 40 41 37 34 33 30 28 27 26 25 23 21 20 20 20 20 22 24 24 23 24 24 22
87 88 87 87 87 88 88 89 90 90 89 89 88 88 89 89 89 88 88 88 87 87 85 84 82 76 68 63 61 59 58 57 55 56 55 54 54 53 52 52 50 46 45 41 37 37 39 40 39 38 37 34 32 30 30 32 37 39 38 36 38 40 42 44 39 35 33 30 29 26 24 22 21 19 18 18 18 19 21 22 22 23 24 23 21
87 87 87 87 88 89 90 91 90 90 89 88 88 87 87 86 86 85 85 84 84 84 82 80 76 69 65 61 58 55 53 52 53 56 56 54 53 53 53 52 49 47 47 42 40 43 43 42 39 38 35 32 31 33 34 36 37 36 34 34 37 40 43 45 40 35 33 30 28 25 21 19 17 16 16 16 17 18 19 19 21 23 24 23 21
86 86 86 86 87 88 89 89 88 87 86 85 85 84 83 84 84 83 82 82 81 80 77 74 68 64 62 58 56 53 49 51 53 53 53 52 52 53 53 52 51 50 49 46 45 45 44 43 42 41 38 35 36 37 38 38 37 34 32 33 38 41 43 44 40 38 36 31 28 24 20 17 14 14 14 14 15 17 18 18 19 21 22 22 20
83 83 83 83 84 85 85 85 85 84 83 83 83 82 82 81 80 80 80 78 75 73 69 65 61 58 53 50 51 48 45 48 50 50 50 51 51 52 53 53 53 52 50 46 44 42 41 42 44 45 41 39 40 39 39 38 36 32 30 34 39 41 42 42 41 41 37 30 28 24 20 16 13 13 14 14 15 17 18 18 19 20 21 21 20
80 80 81 82 82 82 82 81 80 80 80 80 79 77 77 76 75 75 74 71 69 67 64 61 57 51 47 47 49 49 48 48 48 49 50 50 51 52 53 53 52 49 46 43 41 40 40 42 44 44 40 39 38 35 34 34 32 29 30 35 40 40 41 42 42 41 35 29 28 25 21 17 14 13 14 15 15 17 19 19 20 21 21 21 21
77 77 78 79 80 79 78 77 76 75 74 73 71 71 71 71 70 69 68 67 66 64 58 54 50 45 44 45 46 48 47 46 47 48 49 51 52 52 53 51 47 44 41 39 37 37 39 40 41 40 36 35 33 31 31 31 29 29 33 37 39 39 40 43 42 37 31 28 27 25 22 18 14 14 15 15 15 17 19 20 21 21 21 21 21
73 73 74 75 76 75 74 73 72 70 69 68 68 68 67 66 66 66 66 64 62 59 52 45 41 40 43 43 42 42 42 44 47 47 50 52 53 53 51 46 43 40 37 36 36 37 39 41 41 39 37 34 31 31 32 30 30 32 36 36 36 36 37 40 38 31 27 27 27 24 22 19 15 14 15 15 14 15 17 19 19 20 20 21 21
72 73 74 74 74 73 72 70 69 68 68 68 67 66 66 66 66 65 63 60 57 54 51 46 43 44 46 45 43 43 44 46 48 48 50 50 49 50 47 43 40 37 36 37 38 39 40 41 42 40 36 32 30 31 31 31 32 33 33 32 31 31 32 33 30 24 23 26 25 23 21 20 18 16 16 16 15 14 15 17 19 20 21 22 22
72 73 74 73 72 71 70 69 69 69 70 69 68 67 67 66 63 60 58 55 53 52 52 49 47 46 46 44 43 43 45 46 46 46 45 44 46 45 43 40 37 36 38 39 39 40 40 40 39 35 30 29 30 30 31 31 31 30 29 29 28 28 28 27 23 20 20 24 23 21 19 19 20 19 17 16 16 16 16 17 19 20 21 22 22
72 73 73 72 71 70 70 70 69 69 69 68 67 65 61 58 54 53 53 52 51 51 48 45 44 43 42 41 41 41 42 43 42 40 40 41 43 41 39 38 37 38 38 37 37 37 37 36 35 30 26 27 30 30 29 28 28 28 27 27 28 28 27 25 20 17 18 22 23 21 19 18 18 19 18 17 18 18 18 18 18 19 21 22 22
69 69 70 69 68 69 69 67 66 63 63 62 61 58 52 48 47 48 48 47 46 44 41 39 39 38 37 38 38 38 38 39 38 38 41 43 42 39 38 39 40 39 36 34 34 35 35 33 30 27 26 27 29 30 29 29 28 28 27 25 27 29 28 25 21 17 17 21 23 22 21 19 18 19 19 18 19 20 21 21 20 20 21 22 23
61 63 62 62 62 64 65 63 59 57 56 57 56 54 49 46 44 43 41 38 35 35 35 35 36 37 37 36 35 35 36 38 40 42 45 45 42 40 41 43 42 40 36 33 33 33 32 29 26 25 26 27 28 30 30 30 29 27 25 24 27 30 29 27 24 20 18 21 24 24 23 23 22 22 22 22 21 23 24 25 24 24 25 26 27
62 62 61 61 57 56 58 56 53 51 51 53 54 53 50 47 44 41 38 34 31 32 33 35 38 40 40 38 36 36 37 38 39 40 41 41 41 42 43 44 42 40 36 34 34 33 31 29 28 27 27 27 27 30 32 30 27 26 25 25 28 30 30 30 28 24 20 20 24 26 26 26 27 27 27 27 27 27 28 29 29 30 31 32 34
62 60 62 62 55 55 58 54 50 49 48 49 50 50 48 45 43 44 41 38 37 37 39 42 43 43 42 41 40 39 38 37 36 36 37 38 39 40 41 41 40 39 38 38 37 35 33 32 30 28 27 26 28 30 30 28 27 28 28 29 31 32 31 31 31 28 24 20 21 24 26 28 30 30 31 31 31 31 32 33 34 35 36 37 38
55 58 60 55 52 53 55 54 51 48 47 47 46 44 44 45 45 45 44 43 44 44 45 46 46 45 44 41 38 36 35 35 35 36 36 35 35 36 38 40 42 43 43 43 41 37 35 32 31 29 26 25 26 27 26 27 29 30 29 31 34 35 34 32 31 30 27 21 17 19 23 26 29 30 31 32 33 33 35 36 37 38 39 39 39
54 55 53 51 53 52 48 48 49 48 48 46 45 44 45 46 46 45 45 45 46 47 48 49 47 45 40 35 34 34 34 35 36 37 37 34 35 38 40 43 45 46 44 41 38 35 32 30 29 28 26 25 25 25 25 28 30 30 30 34 37 38 36 32 31 30 27 19 14 14 16 20 23 25 27 28 30 32 33 35 35 35 35 35 35
51 49 48 48 50 52 52 51 52 52 52 50 50 50 47 45 43 43 45 46 47 48 48 46 44 41 35 32 34 35 36 36 38 40 40 38 40 42 44 44 43 40 36 33 32 31 28 26 26 27 28 28 29 30 30 31 33 35 37 39 40 40 35 30 29 28 24 19 17 15 13 14 17 20 22 23 24 27 28 30 30 31 31 31 31
46 48 52 52 49 50 52 54 55 55 56 55 52 49 48 47 46 46 47 48 48 47 45 43 42 40 36 35 36 37 37 37 40 42 42 42 44 45 44 41 37 33 29 29 30 31 30 29 29 31 33 35 36 36 36 37 40 42 43 43 40 36 31 27 25 23 20 20 21 19 17 14 13 15 17 19 22 24 25 26 28 29 30 30 30
42 43 46 49 53 53 53 53 54 53 54 54 51 48 48 48 48 48 47 48 49 47 45 44 42 40 38 40 41 41 40 40 41 42 43 45 47 45 41 36 31 28 29 30 31 33 34 34 35 37 37 35 34 35 38 42 44 46 46 41 35 30 27 23 22 21 19 20 21 20 18 17 16 16 18 20 24 26 26 25 26 27 27 27 27
40 41 42 46 51 53 54 54 54 52 50 50 50 51 52 50 48 47 46 47 49 49 47 44 39 37 38 42 45 45 44 43 43 44 45 48 47 43 37 31 28 29 31 32 33 34 34 35 37 38 37 35 33 36 41 46 45 44 41 35 29 26 24 22 23 24 23 23 24 23 21 22 21 20 21 22 24 25 24 24 24 25 24 24 24
42 43 46 50 52 50 47 46 48 50 49 48 47 48 52 53 53 52 50 49 50 50 47 42 36 36 37 40 44 46 46 46 45 46 46 45 41 36 32 30 30 33 35 34 34 34 35 36 38 38 38 36 36 39 44 46 42 37 33 29 26 24 24 23 23 23 25 26 28 29 28 26 23 21 22 22 23 24 25 25 26 24 22 22 23
46 46 48 50 52 49 45 42 42 44 46 46 45 44 47 50 53 54 54 53 53 50 45 40 36 36 38 40 43 44 45 45 45 45 44 42 38 35 33 34 35 37 37 35 35 35 37 39 39 39 38 37 39 42 46 46 38 29 25 24 23 25 26 24 23 21 22 24 26 29 30 29 27 25 24 23 22 24 27 28 29 26 21 20 20
47 49 49 48 48 46 45 45 41 40 42 44 44 44 45 48 49 50 51 52 52 49 44 41 39 39 39 41 43 44 44 43 42 43 42 40 38 37 37 38 39 39 38 37 36 37 39 41 40 38 37 38 41 43 47 45 34 25 22 22 22 25 27 25 25 23 22 22 24 26 27 27 27 26 25 24 24 26 28 29 30 29 25 21 21
42 44 46 45 46 45 45 46 44 42 43 45 47 46 47 49 49 49 49 49 49 47 43 42 42 40 40 40 42 42 42 41 41 42 41 40 38 38 39 40 40 39 38 38 38 38 39 39 37 36 36 39 43 45 47 42 31 24 21 22 23 25 25 26 28 28 27 25 24 24 23 23 23 24 24 24 25 28 29 29 29 30 30 27 25
38 37 40 42 45 46 47 48 48 49 50 50 49 47 48 49 50 51 50 48 47 46 43 42 42 42 42 42 42 42 42 42 42 41 41 40 39 38 39 40 40 39 39 39 39 39 39 37 36 37 39 42 45 46 47 41 31 27 23 23 25 26 27 28 31 32 31 29 27 26 24 23 24 25 25 25 27 30 31 30 29 30 31 30 29
42 39 39 40 41 43 45 46 46 48 50 49 48 47 48 49 49 50 50 48 48 47 45 45 45 45 44 43 42 42 43 42 42 42 43 43 42 41 41 41 41 41 41 41 41 40 39 37 38 41 43 45 47 48 48 41 33 31 28 27 29 31 31 31 33 33 33 31 31 30 27 27 27 27 27 27 28 31 33 32 31 31 32 32 31
47 46 45 43 41 41 41 41 43 45 46 48 48 48 49 50 49 48 49 49 49 49 48 47 47 47 46 44 43 42 42 42 42 44 46 46 46 45 44 44 45 45 45 44 42 40 39 40 42 45 47 48 50 49 48 41 34 32 32 31 33 36 36 34 34 36 36 34 32 32 31 30 30 30 28 29 30 32 33 34 34 35 36 35 32
45 45 46 46 44 43 40 38 40 43 45 47 49 51 51 50 48 48 49 48 47 47 47 47 48 49 49 48 46 45 44 43 43 45 46 45 44 43 44 44 45 44 44 43 41 41 41 43 46 48 49 50 49 46 42 38 36 34 33 34 37 39 40 39 37 37 38 37 35 34 34 33 34 34 33 33 34 35 35 36 37 38 39 38 36
43 41 43 44 43 44 43 41 41 43 44 44 46 48 50 48 46 46 45 44 41 41 43 46 47 49 49 49 48 48 47 46 45 45 44 42 40 40 40 40 40 40 41 41 42 43 44 46 48 48 48 46 44 41 38 37 37 37 36 36 38 39 40 40 40 39 39 39 38 38 37 37 39 40 39 39 40 41 40 39 39 40 40 40 39
42 42 41 41 41 43 45 44 44 44 44 42 42 46 47 46 44 43 42 41 40 41 43 44 45 45 45 46 47 47 46 46 45 45 43 41 39 38 37 37 37 39 40 42 43 45 45 45 44 43 43 42 40 38 37 37 38 39 40 40 40 40 40 40 41 41 41 42 42 42 42 42 42 43 44 44 44 45 45 45 44 43 41 39 39
40 42 42 41 40 41 42 43 44 45 45 43 42 45 46 44 42 42 41 40 41 42 43 43 43 43 43 43 44 45 45 46 46 46 45 43 41 40 39 39 39 40 42 43 44 43 40 39 39 40 41 40 38 37 37 38 39 40 41 42 42 43 43 43 43 43 43 44 45 46 46 46 46 47 48 48 48 48 49 50 49 47 43 40 39
41 43 43 41 39 39 41 42 43 44 46 45 44 45 46 44 42 41 39 39 39 40 40 40 40 40 40 41 42 42 43 44 45 46 46 44 42 41 40 40 41 42 43 43 40 37 35 36 38 39 39 37 36 36 37 38 40 41 42 43 44 45 45 45 45 45 46 46 47 49 50 50 50 51 52 52 52 52 54 54 52 49 46 42 40
45 45 45 42 40 39 40 41 42 43 45 46 46 46 46 45 44 43 41 40 40 40 40 41 41 41 41 41 41 41 41 42 42 42 42 41 40 40 39 39 39 39 38 37 34 33 34 36 38 37 36 34 33 35 37 38 40 42 43 43 44 45 46 47 47 48 48 49 50 52 53 54 55 56 57 57 58 58 59 59 56 52 48 43 41
46 46 44 42 40 39 40 40 42 44 45 46 46 47 47 47 46 47 47 47 47 45 44 44 44 44 43 42 41 41 40 39 38 38 37 37 37 37 37 36 35 34 33 31 31 32 34 36 37 36 33 31 32 33 35 36 38 41 43 45 46 46 47 48 49 50 51 52 53 55 56 57 58 58 59 60 60 61 60 59 57 53 50 46 43
46 45 43 42 41 41 41 41 41 43 45 47 47 47 47 48 48 48 49 51 52 52 50 49 47 46 45 44 43 41 40 39 37 37 37 37 37 37 37 36 34 32 30 29 31 33 34 36 36 33 30 28 29 30 30 30 31 33 37 40 42 43 45 46 48 49 50 51 51 52 52 52 52 53 53 53 53 53 53 53 53 51 50 49 47
Wind_Direction
280 281 281 282 283 284 285 286 287 289 290 291 292 293 295 296 297 298 300 301 302 302 303 304 305 306 306 306 307 308 308 309 309 309 310 311 311 312 312 312 313 313 313 312 315 316 315 318 319 316 317 317 317 316 311 309 308 305 303 300 297 297 299 298 298 297 296 298 299 299 301 310 310 294 288 282 276 273 270 273 277 283 286 289 295
279 280 281 282 283 284 286 286 288 289 290 291 292 293 295 296 297 298 299 301 301 302 303 304 305 305 305 306 306 307 308 308 308 309 310 310 311 311 310 311 311 311 311 312 315 315 313 317 317 315 316 316 316 315 312 312 309 304 300 296 296 296 297 297 296 294 293 296 297 298 299 304 307 299 289 284 277 273 270 270 275 280 284 287 294
279 280 281 282 283 285 286 287 288 289 290 292 293 294 295 296 297 298 299 300 301 302 303 303 304 304 305 305 306 306 307 307 307 308 309 309 309 309 309 309 309 309 310 312 314 313 312 315 316 314 314 315 313 312 312 311 308 302 295 294 295 294 294 293 294 293 292 294 296 297 298 298 302 300 290 283 277 271 270 269 273 277 279 285 293
279 280 282 283 284 285 286 287 288 290 291 293 294 295 295 295 296 298 299 300 301 302 302 302 303 303 304 304 305 305 306 306 307 308 308 308 307 308 307 307 308 308 310 311 312 312 312 315 315 312 313 314 312 311 310 308 306 298 292 293 291 291 291 290 291 292 291 293 295 295 296 296 298 298 287 279 275 270 269 268 271 273 275 282 291
280 281 282 283 284 285 286 287 289 291 292 293 293 294 295 295 296 298 299 299 300 301 301 301 302 302 303 303 304 305 305 305 306 306 307 307 308 310 308 307 307 307 309 310 311 310 312 315 313 311 312 312 312 311 308 307 305 294 290 290 287 288 289 290 290 290 291 292 295 295 296 295 296 294 281 275 273 268 269 267 269 270 272 280 289
280 282 283 284 285 286 287 288 290 291 292 293 292 294 295 295 296 297 298 298 300 300 300 300 301 301 302 303 304 304 304 304 305 306 306 307 311 312 309 306 306 307 308 309 310 309 312 315 311 311 312 312 313 310 308 309 302 289 285 286 286 287 288 290 290 291 292 294 298 298 297 295 292 286 276 272 271 268 267 266 266 267 270 277 286
281 282 283 284 285 286 288 289 290 291 291 291 292 293 293 294 295 296 297 297 298 299 299 300 300 300 302 303 303 303 303 304 305 305 304 306 309 310 307 305 306 306 307 309 309 309 313 312 309 311 311 312 312 308 309 306 293 284 280 282 285 287 289 291 291 292 294 297 299 298 297 294 287 279 272 269 269 268 266 264 263 264 268 274 283
281 282 283 284 285 286 287 288 289 289 289 290 290 291 291 293 294 295 295 296 297 298 298 299 299 301 302 302 301 301 302 304 306 304 304 305 306 306 304 302 303 305 306 308 308 309 312 309 307 311 311 312 310 308 308 298 285 280 278 281 285 289 293 295 294 295 296 297 296 295 295 290 282 274 269 266 266 268 266 263 261 261 265 271 279
280 281 282 283 283 285 285 286 286 286 287 288 289 290 291 292 293 294 295 296 296 297 298 298 299 301 301 300 300 301 303 305 305 305 305 305 305 305 302 298 298 302 304 305 307 309 310 306 308 311 310 310 308 305 299 286 281 279 280 283 287 293 297 298 297 297 295 293 291 291 291 286 278 271 268 265 262 265 265 261 259 259 261 268 276
279 280 281 281 282 283 284 284 284 285 286 287 288 289 290 291 292 293 295 295 296 296 297 298 299 299 299 299 300 301 303 304 305 305 305 305 304 304 303 299 296 298 301 303 305 307 307 305 307 309 308 308 306 300 289 282 279 279 282 285 290 296 299 299 298 295 292 292 290 288 288 283 276 271 267 264 261 261 263 260 258 257 256 263 272
278 279 280 280 281 282 282 282 282 284 285 286 287 288 289 291 292 294 294 295 295 296 297 297 298 298 298 298 300 301 303 305 306 305 304 303 303 303 303 301 297 296 298 302 304 305 305 304 306 308 306 306 305 293 280 280 279 280 285 290 295 297 298 297 296 296 298 299 295 291 290 284 276 272 268 265 261 259 261 258 255 254 253 258 267
277 277 278 279 280 280 280 280 281 282 283 284 286 287 289 291 292 293 293 294 294 295 296 296 296 297 298 298 300 301 303 304 304 302 301 301 303 302 301 299 297 297 298 301 303 304 304 303 305 305 304 306 303 288 276 277 279 282 288 294 299 301 301 298 300 307 311 308 302 297 293 286 279 274 269 266 261 256 257 254 253 254 251 255 264
275 276 276 277 278 279 279 279 280 282 283 284 286 287 289 290 291 291 292 293 294 295 295 295 295 296 297 299 300 301 302 302 300 298 299 301 302 300 299 298 297 298 299 300 301 303 303 302 304 303 304 303 297 288 280 281 285 292 297 300 306 310 310 306 308 314 315 312 306 301 295 287 280 276 271 268 261 253 251 250 249 253 250 253 262
274 275 276 277 278 278 279 280 281 282 283 284 285 286 287 288 289 290 291 292 293 294 294 294 295 296 298 299 301 301 302 301 297 296 298 299 299 299 299 297 296 298 298 299 301 302 302 302 303 302 303 301 294 291 291 293 298 305 306 305 313 318 317 312 309 313 314 313 307 301 296 288 281 277 272 268 262 251 247 245 247 250 248 252 260
275 276 277 278 278 279 280 280 281 282 283 284 285 286 286 287 288 290 290 291 292 292 292 294 295 297 299 299 300 301 301 298 294 294 294 295 296 296 296 295 296 296 295 298 301 301 302 301 301 301 302 301 295 294 297 300 303 308 310 311 317 319 318 314 308 311 313 309 304 299 296 288 283 279 273 268 260 251 244 243 246 247 246 250 259
275 276 277 277 278 279 280 280 281 282 283 284 285 286 286 287 289 289 289 290 290 291 292 294 295 297 299 298 298 297 295 291 288 289 289 290 291 290 290 292 294 293 294 297 299 299 299 298 299 301 302 300 296 298 300 301 304 308 311 313 317 318 317 314 308 311 313 305 300 298 294 289 285 279 272 266 259 251 244 244 246 246 245 249 257
274 275 276 277 278 279 279 279 280 281 282 284 284 286 287 288 289 289 290 290 291 292 293 294 295 296 297 294 292 292 291 288 285 285 286 288 288 288 288 293 293 290 293 294 294 296 295 295 299 302 302 299 297 300 300 301 305 309 310 312 316 316 313 311 306 310 312 301 297 296 292 288 284 280 274 267 259 251 245 246 246 245 246 249 254
275 276 276 277 278 278 278 279 280 282 283 284 285 286 287 288 289 290 290 291 292 292 293 294 294 294 294 291 288 288 287 286 285 285 286 287 286 288 289 292 290 288 292 291 290 293 293 293 298 303 300 298 300 301 302 303 308 311 310 310 315 314 309 306 302 307 309 297 293 291 287 285 282 282 278 270 260 250 246 246 244 243 246 249 252
275 276 277 277 278 278 279 280 281 282 284 285 285 286 288 288 288 289 290 291 292 292 293 294 293 292 291 288 285 284 282 281 282 283 285 285 286 288 289 289 287 287 291 290 290 291 291 289 293 301 297 295 302 303 305 307 310 311 309 311 314 311 305 301 297 302 305 292 287 285 280 277 278 282 279 273 261 250 246 245 243 244 246 248 250
275 276 277 277 278 278 280 281 281 283 285 285 286 286 287 288 288 288 290 291 292 293 293 293 293 292 288 282 280 279 275 275 278 280 281 283 286 289 289 287 287 290 292 291 290 288 289 288 290 297 294 293 302 305 307 309 309 309 308 310 312 307 301 298 294 299 300 286 280 279 272 268 270 280 280 273 261 251 248 247 246 245 247 247 247
276 276 276 277 277 278 280 283 283 284 285 285 286 286 286 287 288 289 290 291 292 293 292 291 292 289 283 279 277 274 271 271 273 275 278 283 287 289 289 289 290 292 293 291 289 287 288 289 290 294 293 294 301 305 306 305 304 303 303 305 306 303 299 296 294 297 294 278 274 273 270 267 268 280 282 273 262 253 250 251 251 249 247 243 245
276 277 277 277 277 279 281 284 285 285 285 285 286 287 287 287 288 289 290 291 291 291 290 289 288 284 280 279 277 273 271 270 271 272 277 283 285 286 287 289 291 292 292 292 290 289 289 292 294 294 294 296 297 299 300 299 298 297 300 303 304 303 300 296 294 295 286 270 268 269 269 269 271 283 286 276 264 255 252 253 253 249 243 241 245
276 277 277 278 278 280 282 284 284 283 283 285 287 288 287 288 289 290 290 290 290 289 287 284 283 281 279 278 275 270 268 271 272 273 278 282 284 285 286 288 289 289 290 291 292 292 292 295 297 298 297 294 292 293 297 296 294 298 303 306 307 307 302 295 294 292 276 264 264 268 270 268 270 283 287 279 265 255 251 249 247 244 241 241 245
276 277 278 279 280 281 283 283 282 282 284 287 287 287 288 289 290 290 289 289 288 286 283 281 280 279 279 278 273 269 271 275 276 277 280 283 283 283 285 286 286 286 290 292 294 294 296 298 299 300 296 289 287 289 293 294 295 302 306 309 313 313 305 296 295 289 268 259 262 268 271 268 267 275 284 279 265 253 246 243 242 241 241 242 246
277 278 278 279 281 282 282 282 282 283 285 286 286 288 289 289 290 289 288 286 285 283 281 278 277 278 279 278 276 274 276 277 279 281 282 282 282 283 285 284 283 288 293 295 296 297 298 299 298 296 288 281 280 283 289 294 297 300 303 309 314 315 310 302 296 285 265 256 259 268 271 271 270 271 278 274 260 249 243 242 242 241 242 245 248
278 278 279 280 281 281 281 282 282 283 285 285 286 288 289 290 289 288 286 285 283 280 278 276 276 277 276 275 276 277 278 279 280 279 279 281 283 285 284 281 283 290 295 297 298 299 298 295 293 288 281 277 279 284 291 295 294 292 296 304 310 311 311 310 302 285 265 253 257 265 267 271 275 273 273 269 257 248 243 242 243 245 246 249 252
279 278 279 280 280 280 281 281 282 283 285 286 286 286 288 290 288 287 287 286 282 277 274 273 274 275 274 274 276 278 277 276 274 274 277 280 281 281 279 279 285 291 294 297 299 298 295 292 290 286 283 282 286 290 293 293 288 285 290 297 304 305 304 308 307 292 267 253 256 262 264 267 270 270 267 264 258 251 247 245 245 249 251 254 257
281 282 282 281 282 282 280 279 281 283 283 284 285 284 286 287 285 285 287 283 279 275 273 274 274 275 275 274 274 275 272 268 269 273 275 274 273 272 273 277 284 291 294 296 299 296 291 289 289 288 287 288 291 292 291 290 285 284 289 293 299 300 298 299 299 292 273 255 254 258 261 264 265 266 263 260 257 253 252 249 249 253 258 262 265
283 284 283 283 283 281 279 279 281 282 281 282 282 282 283 281 277 279 279 274 271 271 272 275 277 276 276 273 273 275 273 270 271 271 268 266 265 267 271 278 285 291 292 295 296 290 286 286 287 287 286 287 287 287 288 286 283 285 289 292 296 297 296 294 290 286 277 260 256 258 262 264 264 265 263 260 259 258 257 257 257 259 263 269 274
280 280 282 284 280 274 275 279 280 279 279 279 279 278 278 276 273 275 272 266 266 268 272 276 276 275 275 275 276 278 275 272 269 265 262 263 264 268 274 282 287 289 290 292 290 284 283 284 285 286 285 284 282 283 283 281 281 284 286 289 291 293 293 291 287 281 274 266 262 267 271 270 269 267 264 262 261 262 263 263 264 265 267 271 276
274 278 282 280 276 273 273 273 273 274 274 273 274 274 271 273 275 276 271 265 267 272 276 278 277 276 277 278 278 275 271 269 265 262 263 267 269 274 279 284 287 287 289 288 284 283 285 285 284 283 280 279 278 280 278 276 281 284 288 289 285 287 289 286 283 276 271 272 275 280 280 273 270 269 269 268 267 268 269 269 269 269 270 271 273
269 277 279 275 273 272 271 270 268 269 268 266 271 274 273 275 276 274 271 268 270 275 279 280 279 279 278 276 271 266 265 265 262 261 263 267 272 279 283 286 288 288 287 285 283 283 285 286 284 279 274 271 271 273 274 275 280 283 286 287 282 283 285 282 280 274 269 270 272 279 278 269 267 269 271 274 274 274 274 274 273 272 271 272 272
267 270 271 273 271 267 266 268 267 267 265 265 270 274 272 273 272 270 269 269 271 275 279 280 279 278 272 266 265 263 263 261 259 260 262 267 276 284 289 291 290 288 286 282 279 281 282 282 281 278 277 275 275 276 275 275 279 283 284 283 280 281 280 278 277 272 267 259 249 247 250 259 272 276 274 277 280 279 277 276 275 274 273 272 270
264 264 267 267 263 261 263 263 264 266 266 267 271 271 269 269 269 268 269 271 274 276 277 277 277 275 265 257 262 263 261 260 261 262 264 272 282 289 292 292 290 287 282 279 277 279 278 278 280 284 286 285 284 283 282 282 281 282 284 282 281 278 273 272 270 264 259 252 247 244 243 258 280 282 278 282 287 286 284 283 280 277 275 273 270
260 259 263 262 257 258 261 262 263 267 268 266 267 267 266 267 267 267 268 270 273 274 276 278 275 270 261 254 257 260 261 262 263 265 271 280 286 290 291 288 285 280 277 278 281 281 279 279 283 287 290 288 288 288 293 296 289 280 279 281 280 272 263 262 254 250 250 246 249 254 257 265 273 276 281 286 288 290 291 290 285 280 278 276 274
253 248 249 253 256 260 262 263 264 267 267 265 264 263 263 264 265 265 265 268 272 273 276 279 273 265 259 253 254 257 260 262 264 268 275 282 285 287 286 279 272 270 273 278 281 281 279 280 284 287 287 286 288 292 301 306 297 283 276 276 274 263 254 252 245 247 253 247 245 251 258 266 272 279 286 287 286 289 293 293 288 283 280 279 280
248 247 247 250 256 260 263 264 264 263 263 263 264 264 262 262 263 263 264 267 271 273 278 279 271 261 257 255 257 258 261 264 266 271 276 280 281 280 276 270 266 268 274 279 280 279 279 281 285 287 287 285 289 296 307 311 300 285 276 269 264 252 246 249 250 252 254 250 245 246 251 259 265 272 279 282 286 289 291 292 289 284 281 281 283
247 248 251 255 259 260 260 262 263 263 261 263 264 263 262 262 264 265 266 266 267 271 276 275 267 261 259 259 261 262 264 267 270 274 277 278 275 270 268 268 269 271 275 278 280 280 281 282 284 286 286 287 292 299 312 314 299 283 272 262 255 245 242 246 249 248 245 246 247 248 251 255 259 264 270 277 284 288 288 288 286 282 278 276 277
249 247 250 256 260 259 258 258 259 261 262 263 263 261 261 261 262 264 266 265 265 268 271 269 265 262 262 261 262 264 266 268 271 273 274 274 270 265 263 266 269 271 275 278 281 282 282 283 283 284 285 289 295 301 312 313 296 279 265 254 247 240 241 242 243 241 234 233 240 247 253 258 263 266 272 279 283 286 287 287 285 280 274 268 269
253 249 250 253 254 255 256 257 258 258 259 263 264 262 262 262 262 264 267 268 267 270 270 267 265 264 266 267 267 266 267 269 272 272 272 270 267 264 263 264 267 270 275 278 281 282 281 281 281 283 286 291 297 301 310 309 290 271 255 242 235 232 235 238 239 240 237 234 236 244 253 259 264 267 272 278 280 280 281 285 287 283 278 271 267
251 250 251 253 255 256 259 262 262 260 260 262 262 262 265 265 263 264 267 269 268 269 269 267 267 269 272 273 270 267 267 269 270 270 270 268 267 266 265 265 267 269 274 278 280 280 279 279 280 284 289 295 299 301 307 303 281 264 248 229 220 221 227 232 236 240 243 243 242 245 251 255 260 264 268 272 275 278 278 280 284 286 283 277 272
246 247 252 255 257 260 262 264 265 263 260 259 259 262 265 266 266 264 265 267 267 267 267 268 269 272 274 274 270 268 267 266 266 266 266 267 268 269 267 267 268 270 274 277 279 278 277 278 282 287 291 296 301 302 304 298 276 263 253 232 219 219 226 230 234 239 242 245 246 248 249 253 260 265 268 270 274 278 278 278 278 281 282 278 274
247 248 251 254 256 260 262 262 263 263 259 257 259 263 265 266 266 265 265 265 265 265 265 267 269 271 273 273 271 270 269 268 266 265 265 267 270 271 270 270 271 272 275 276 277 276 277 281 285 288 292 297 300 300 299 290 270 259 253 240 228 226 229 231 234 239 242 245 248 250 253 256 261 267 269 271 274 276 276 277 276 277 278 276 271
250 250 250 253 256 257 258 258 259 260 259 259 261 264 265 265 265 265 265 265 265 265 264 265 268 269 270 270 270 271 272 272 270 268 268 270 273 273 273 272 273 273 275 275 276 277 280 284 288 291 294 296 297 295 291 281 266 257 252 243 236 233 233 235 237 240 243 248 251 254 258 261 263 265 268 271 276 279 278 278 278 278 277 273 268
248 251 252 254 256 255 254 256 258 259 261 262 261 262 264 265 265 265 263 263 263 264 264 266 267 268 269 269 269 270 271 272 271 271 272 274 274 273 273 272 273 273 274 275 277 280 284 288 291 294 295 294 293 290 283 274 265 259 255 249 243 240 239 239 241 243 247 251 255 257 261 265 267 268 269 273 277 280 279 279 280 280 276 271 266
246 249 253 255 259 259 256 256 257 258 260 262 259 258 262 264 265 264 261 258 258 260 263 266 267 268 270 270 269 269 269 269 270 271 273 274 274 273 272 271 271 272 274 276 279 284 288 291 293 293 292 291 289 286 278 271 266 261 258 256 254 252 250 248 248 250 252 255 258 260 262 265 268 270 272 275 278 279 280 281 282 281 275 270 266
245 246 249 253 257 259 258 257 257 256 258 259 258 257 260 262 263 262 259 257 257 258 262 265 267 269 270 270 269 268 268 267 268 270 271 272 272 272 272 271 272 274 276 278 281 286 290 292 293 291 288 287 284 281 275 268 266 265 263 261 260 259 258 257 255 255 256 258 261 262 264 265 268 272 274 275 278 279 280 282 281 278 273 267 264
241 242 246 251 253 255 257 257 257 257 256 257 257 257 257 258 257 257 256 256 258 260 263 266 269 271 271 270 269 268 268 268 268 268 269 269 270 270 271 272 273 275 276 279 283 287 292 294 294 290 285 283 280 277 274 268 265 266 267 266 265 264 263 262 261 260 260 262 265 267 269 270 272 274 276 276 277 278 279 280 279 274 269 264 262
239 242 247 251 252 254 256 256 255 256 256 256 256 255 255 255 254 253 253 255 258 261 264 266 269 271 272 271 270 269 268 269 269 267 267 267 267 269 270 271 273 275 277 281 285 290 294 298 297 291 284 280 277 276 274 270 266 265 267 269 269 268 267 267 267 267 268 269 271 273 275 275 276 276 277 277 277 277 278 278 278 273 265 260 260
240 244 247 249 251 255 257 256 255 256 256 256 255 254 254 256 255 253 253 255 259 262 263 266 269 272 273 272 271 270 271 270 269 267 266 265 266 267 268 270 272 275 279 283 287 291 296 301 300 290 281 277 276 275 274 272 269 267 267 269 270 270 270 271 272 272 273 274 275 277 278 278 278 277 276 276 276 276 276 275 274 271 263 257 256
240 245 247 249 252 256 256 256 257 257 256 255 255 254 254 254 256 256 255 256 258 260 262 266 271 272 273 273 272 273 273 271 268 268 268 267 267 267 268 270 272 275 279 282 286 291 298 304 300 288 278 276 276 275 274 272 271 270 269 269 269 270 270 271 272 273 273 275 276 277 277 277 277 276 275 275 274 274 273 272 270 268 263 258 255
Height
10909 10907 10906 10906 10906 10906 10906 10906 10905 10905 10904 10904 10903 10902 10901 10900 10899 10899 10898 10897 10896 10894 10891 10889 10888 10888 10887 10885 10883 10881 10879 10876 10873 10870 10868 10865 10864 10861 10858 10856 10855 10854 10853 10850 10848 10846 10844 10842 10840 10837 10834 10831 10828 10825 10822 10820 10819 10817 10816 10814 10814 10813 10813 10813 10812 10812 10812 10811 10810 10810 10809 10808 10807 10807 10806 10805 10805 10805 10805 10805 10806 10805 10805 10804 10803
10905 10904 10903 10902 10902 10902 10902 10902 10901 10901 10900 10900 10900 10899 10898 10896 10896 10895 10894 10893 10892 10890 10888 10885 10884 10883 10882 10881 10879 10877 10875 10872 10869 10866 10863 10860 10858 10856 10853 10851 10850 10850 10849 10846 10844 10842 10840 10839 10836 10834 10831 10827 10824 10822 10819 10818 10816 10814 10813 10812 10811 10811 10811 10810 10810 10809 10809 10808 10807 10807 10806 10805 10804 10804 10803 10802 10802 10802 10802 10802 10803 10802 10802 10802 10801
10903 10901 10900 10899 10899 10898 10897 10897 10897 10896 10896 10896 10896 10895 10894 10892 10892 10890 10889 10888 10888 10887 10885 10882 10879 10878 10877 10876 10874 10872 10870 10868 10865 10861 10859 10855 10853 10850 10848 10846 10846 10846 10844 10842 10839 10838 10837 10835 10833 10829 10827 10824 10821 10818 10817 10815 10813 10812 10810 10809 10809 10809 10808 10807 10807 10806 10806 10806 10805 10803 10802 10801 10800 10800 10800 10799 10798 10798 10799 10799 10800 10800 10799 10799 10799
10899 10897 10896 10896 10895 10894 10893 10892 10892 10892 10892 10892 10892 10891 10890 10888 10887 10886 10885 10884 10884 10883 10880 10878 10875 10873 10871 10871 10869 10867 10865 10863 10860 10857 10854 10851 10848 10845 10843 10841 10842 10841 10840 10838 10835 10834 10832 10831 10828 10825 10823 10821 10818 10815 10814 10812 10810 10809 10808 10807 10807 10806 10805 10804 10804 10803 10803 10802 10801 10800 10798 10797 10796 10795 10796 10796 10795 10795 10795 10796 10796 10797 10797 10796 10796
10894 10893 10893 10892 10890 10889 10888 10888 10887 10888 10888 10888 10887 10886 10885 10884 10883 10881 10881 10880 10879 10878 10876 10874 10871 10869 10866 10865 10865 10862 10859 10858 10856 10853 10850 10847 10843 10840 10838 10837 10837 10837 10835 10834 10832 10829 10828 10826 10824 10821 10819 10817 10814 10812 10810 10809 10808 10807 10806 10805 10804 10803 10802 10801 10801 10800 10799 10798 10797 10796 10793 10792 10791 10791 10791 10792 10792 10792 10792 10792 10793 10794 10794 10794 10794
10890 10890 10888 10887 10885 10884 10883 10883 10883 10883 10883 10883 10882 10881 10880 10879 10878 10877 10876 10876 10874 10873 10871 10869 10867 10865 10862 10860 10859 10857 10854 10852 10851 10848 10846 10842 10840 10837 10834 10833 10833 10832 10831 10829 10827 10825 10823 10821 10819 10817 10815 10813 10811 10808 10806 10805 10805 10804 10803 10802 10802 10800 10799 10798 10797 10796 10795 10794 10793 10791 10789 10787 10786 10787 10787 10788 10788 10788 10789 10789 10790 10790 10791 10791 10791
10885 10885 10883 10882 10881 10880 10878 10878 10878 10878 10878 10878 10877 10876 10875 10874 10874 10873 10872 10871 10869 10868 10866 10864 10863 10861 10858 10855 10852 10851 10849 10847 10846 10844 10841 10838 10836 10833 10830 10828 10828 10827 10826 10825 10823 10821 10819 10817 10815 10813 10811 10809 10807 10805 10803 10802 10802 10802 10801 10800 10799 10797 10796 10794 10793 10792 10791 10790 10788 10786 10784 10782 10782 10783 10783 10784 10784 10785 10785 10786 10787 10787 10788 10788 10788
10880 10880 10878 10878 10876 10875 10874 10874 10874 10874 10874 10873 10873 10871 10870 10870 10869 10868 10867 10866 10864 10862 10861 10860 10858 10856 10854 10850 10846 10844 10844 10842 10840 10838 10835 10833 10831 10829 10827 10824 10822 10822 10822 10821 10819 10816 10814 10812 10811 10809 10807 10805 10803 10801 10799 10799 10799 10799 10798 10797 10796 10794 10792 10791 10790 10789 10787 10786 10784 10782 10780 10779 10778 10779 10780 10781 10781 10781 10782 10782 10783 10784 10785 10785 10785
10875 10874 10874 10873 10872 10871 10871 10871 10871 10870 10870 10869 10868 10867 10866 10865 10865 10863 10862 10861 10859 10857 10856 10855 10853 10852 10850 10846 10841 10838 10838 10837 10833 10831 10829 10827 10826 10824 10822 10819 10817 10817 10817 10816 10814 10812 10811 10808 10807 10805 10803 10801 10799 10797 10797 10797 10797 10796 10795 10794 10792 10791 10788 10787 10786 10785 10783 10781 10780 10778 10776 10775 10775 10775 10776 10777 10777 10777 10778 10779 10780 10781 10782 10782 10782
10869 10869 10869 10868 10868 10868 10868 10867 10867 10866 10865 10864 10863 10862 10861 10861 10859 10858 10857 10856 10854 10852 10851 10850 10849 10847 10845 10841 10836 10832 10831 10830 10827 10824 10823 10822 10820 10818 10817 10814 10812 10812 10813 10812 10810 10808 10807 10804 10803 10802 10800 10798 10796 10795 10795 10795 10794 10793 10792 10790 10789 10787 10785 10783 10782 10781 10779 10777 10775 10774 10772 10771 10771 10771 10772 10773 10773 10774 10775 10776 10777 10778 10779 10779 10780
10864 10864 10863 10863 10864 10864 10864 10863 10862 10861 10860 10858 10858 10857 10856 10855 10854 10854 10853 10851 10849 10847 10846 10845 10844 10843 10840 10836 10832 10827 10824 10823 10821 10818 10817 10816 10815 10814 10812 10810 10808 10807 10808 10808 10807 10805 10802 10801 10799 10798 10797 10795 10794 10793 10792 10792 10791 10790 10789 10787 10785 10784 10782 10780 10779 10778 10776 10773 10771 10769 10768 10767 10767 10767 10768 10769 10769 10770 10771 10772 10773 10774 10775 10776 10777
10859 10859 10858 10859 10859 10859 10859 10859 10857 10856 10854 10853 10853 10852 10851 10850 10850 10849 10847 10845 10843 10842 10842 10841 10839 10837 10834 10831 10827 10823 10819 10816 10814 10812 10811 10811 10810 10809 10808 10806 10804 10803 10803 10803 10802 10801 10799 10797 10796 10795 10794 10792 10791 10790 10790 10789 10788 10788 10786 10784 10782 10781 10779 10777 10776 10775 10773 10770 10767 10766 10765 10764 10764 10764 10764 10765 10765 10766 10767 10769 10770 10771 10772 10773 10774
10854 10852 10853 10854 10854 10854 10854 10853 10851 10850 10848 10848 10848 10847 10847 10846 10845 10844 10842 10840 10838 10837 10837 10835 10834 10832 10829 10825 10821 10817 10814 10810 10807 10806 10806 10805 10805 10804 10804 10802 10800 10799 10799 10799 10798 10796 10795 10794 10793 10792 10791 10790 10788 10787 10787 10787 10786 10785 10784 10782 10779 10777 10775 10773 10772 10772 10770 10768 10765 10764 10762 10761 10761 10761 10761 10761 10762 10762 10763 10765 10767 10768 10769 10770 10771
10848 10847 10848 10848 10848 10848 10848 10846 10844 10843 10842 10842 10843 10843 10842 10841 10840 10838 10836 10834 10833 10832 10831 10829 10828 10826 10823 10820 10816 10812 10808 10804 10801 10801 10800 10800 10800 10799 10799 10798 10797 10796 10795 10795 10794 10793 10792 10791 10790 10789 10788 10787 10786 10785 10785 10784 10783 10783 10781 10779 10776 10774 10772 10770 10769 10769 10767 10766 10763 10761 10760 10759 10758 10758 10758 10758 10758 10759 10760 10762 10764 10765 10766 10767 10769
10843 10843 10842 10842 10843 10842 10841 10839 10837 10836 10836 10837 10837 10837 10836 10835 10834 10832 10829 10828 10827 10826 10825 10823 10822 10821 10819 10814 10809 10807 10804 10800 10797 10797 10796 10795 10795 10794 10794 10794 10794 10793 10792 10792 10791 10790 10788 10787 10787 10786 10785 10784 10784 10783 10783 10782 10781 10780 10779 10776 10774 10771 10769 10767 10766 10766 10765 10763 10761 10759 10758 10756 10756 10756 10755 10756 10756 10757 10758 10759 10761 10762 10764 10765 10766
10838 10837 10836 10837 10838 10836 10834 10832 10831 10830 10831 10832 10831 10831 10830 10829 10827 10825 10822 10821 10821 10820 10818 10817 10815 10815 10816 10811 10804 10802 10800 10796 10793 10793 10792 10791 10791 10790 10790 10791 10791 10791 10790 10789 10788 10787 10786 10785 10784 10783 10782 10781 10780 10780 10780 10779 10778 10778 10776 10774 10771 10768 10766 10764 10762 10763 10763 10760 10758 10757 10755 10754 10754 10753 10753 10753 10754 10754 10756 10757 10758 10760 10761 10762 10763
10832 10830 10831 10832 10832 10829 10827 10825 10825 10825 10826 10826 10825 10824 10824 10822 10820 10817 10815 10814 10814 10812 10811 10810 10808 10808 10812 10810 10802 10798 10796 10792 10790 10788 10788 10787 10787 10786 10787 10788 10788 10788 10787 10786 10786 10785 10783 10782 10781 10780 10779 10778 10777 10777 10777 10777 10776 10775 10773 10772 10769 10766 10764 10761 10759 10760 10761 10757 10756 10755 10753 10752 10752 10751 10751 10751 10752 10752 10753 10754 10756 10757 10758 10759 10760
10826 10825 10825 10825 10824 10822 10819 10819 10820 10820 10821 10820 10819 10818 10817 10815 10812 10810 10808 10808 10807 10804 10804 10803 10801 10802 10803 10804 10799 10794 10792 10789 10785 10783 10783 10783 10782 10782 10782 10783 10784 10785 10784 10784 10783 10782 10781 10779 10778 10778 10776 10775 10774 10774 10774 10773 10773 10772 10771 10769 10767 10764 10762 10758 10756 10758 10758 10755 10753 10753 10752 10751 10750 10750 10749 10749 10750 10750 10751 10752 10753 10754 10755 10756 10757
10821 10819 10819 10818 10816 10814 10813 10814 10814 10815 10815 10814 10814 10812 10810 10808 10805 10804 10802 10802 10800 10797 10797 10796 10795 10796 10795 10795 10793 10790 10789 10785 10781 10780 10779 10778 10778 10778 10778 10779 10780 10780 10781 10781 10780 10779 10778 10777 10775 10774 10773 10771 10770 10770 10769 10769 10769 10768 10767 10766 10764 10762 10759 10756 10754 10755 10756 10753 10751 10751 10750 10749 10748 10748 10747 10747 10747 10748 10749 10750 10751 10752 10753 10753 10754
10815 10814 10813 10811 10808 10807 10807 10808 10809 10810 10809 10808 10807 10805 10803 10801 10800 10799 10797 10796 10793 10790 10791 10790 10790 10789 10788 10788 10787 10785 10784 10780 10778 10777 10775 10774 10774 10775 10775 10775 10775 10776 10777 10777 10777 10776 10775 10774 10772 10771 10769 10768 10766 10765 10765 10764 10764 10764 10764 10763 10762 10759 10756 10752 10751 10752 10752 10750 10748 10749 10748 10747 10747 10746 10746 10745 10745 10746 10746 10747 10748 10749 10750 10751 10752
10808 10807 10806 10804 10802 10802 10802 10803 10804 10804 10803 10801 10800 10798 10796 10795 10795 10794 10793 10790 10787 10785 10784 10784 10783 10783 10782 10782 10781 10781 10779 10776 10775 10773 10771 10770 10771 10772 10772 10771 10771 10772 10773 10773 10773 10773 10772 10770 10768 10766 10765 10763 10762 10762 10761 10760 10760 10761 10761 10760 10759 10757 10753 10748 10747 10749 10749 10747 10746 10746 10746 10746 10745 10744 10744 10743 10743 10744 10744 10745 10746 10747 10748 10749 10749
10802 10800 10798 10797 10796 10797 10798 10798 10798 10797 10795 10794 10793 10792 10791 10790 10790 10789 10788 10785 10782 10780 10778 10776 10777 10777 10776 10776 10776 10776 10774 10773 10772 10771 10769 10768 10768 10769 10768 10768 10768 10769 10770 10770 10770 10769 10767 10765 10763 10762 10761 10760 10759 10759 10758 10758 10758 10759 10758 10757 10755 10753 10749 10743 10743 10746 10745 10744 10743 10744 10744 10744 10743 10743 10742 10742 10742 10742 10743 10744 10744 10745 10746 10746 10747
10795 10793 10791 10790 10791 10793 10793 10792 10791 10789 10787 10787 10786 10786 10785 10785 10785 10784 10782 10780 10778 10774 10770 10770 10772 10772 10771 10771 10771 10771 10770 10770 10768 10767 10766 10765 10765 10764 10764 10764 10765 10766 10767 10766 10765 10763 10762 10761 10759 10758 10757 10757 10757 10756 10756 10756 10756 10756 10755 10753 10751 10749 10745 10739 10740 10743 10742 10741 10741 10742 10742 10742 10742 10742 10741 10741 10740 10740 10741 10742 10743 10743 10744 10744 10745
10789 10787 10784 10785 10787 10788 10787 10785 10783 10781 10780 10779 10780 10780 10779 10780 10780 10778 10776 10775 10773 10768 10765 10766 10767 10767 10767 10767 10767 10766 10766 10766 10764 10764 10763 10762 10761 10760 10761 10761 10762 10762 10762 10761 10760 10758 10757 10757 10757 10756 10755 10755 10754 10753 10753 10753 10753 10752 10751 10750 10748 10745 10741 10737 10738 10740 10740 10739 10739 10740 10740 10740 10740 10740 10740 10740 10740 10740 10740 10741 10741 10742 10742 10743 10743
10783 10780 10779 10781 10783 10782 10779 10777 10775 10773 10773 10773 10774 10774 10774 10774 10773 10771 10770 10769 10768 10764 10761 10762 10762 10761 10761 10762 10762 10762 10762 10762 10761 10760 10760 10759 10758 10757 10757 10758 10758 10758 10757 10756 10755 10754 10754 10754 10754 10753 10752 10751 10750 10750 10750 10750 10749 10749 10748 10747 10745 10743 10739 10737 10737 10738 10738 10737 10737 10738 10738 10738 10738 10738 10738 10739 10739 10738 10738 10739 10739 10740 10740 10741 10741
10777 10774 10774 10777 10778 10775 10771 10768 10766 10766 10767 10768 10769 10768 10768 10768 10767 10765 10764 10763 10762 10760 10758 10757 10757 10756 10757 10757 10758 10757 10757 10757 10757 10757 10757 10756 10755 10754 10754 10754 10754 10754 10753 10752 10752 10751 10751 10750 10750 10749 10748 10747 10746 10746 10747 10746 10746 10746 10745 10744 10743 10740 10738 10737 10736 10736 10736 10735 10735 10735 10735 10735 10736 10736 10736 10737 10737 10737 10736 10737 10737 10737 10738 10738 10739
10770 10769 10770 10772 10772 10767 10762 10757 10757 10761 10762 10763 10762 10762 10762 10762 10761 10759 10758 10758 10757 10756 10754 10753 10752 10752 10752 10753 10753 10753 10753 10753 10754 10754 10754 10753 10752 10751 10751 10750 10750 10750 10750 10749 10749 10749 10747 10746 10746 10745 10744 10743 10743 10743 10744 10743 10742 10742 10743 10742 10741 10738 10737 10736 10734 10734 10733 10733 10733 10733 10733 10733 10733 10734 10734 10734 10735 10735 10734 10734 10735 10735 10735 10736 10736
10764 10764 10766 10767 10766 10758 10750 10748 10752 10757 10758 10757 10756 10756 10757 10757 10755 10754 10754 10754 10753 10751 10751 10750 10749 10748 10748 10748 10749 10749 10750 10751 10751 10751 10750 10749 10748 10748 10747 10747 10746 10746 10747 10747 10747 10746 10744 10743 10742 10741 10741 10740 10741 10741 10741 10740 10739 10739 10739 10740 10738 10736 10734 10733 10732 10731 10731 10730 10730 10730 10730 10730 10730 10730 10730 10731 10732 10732 10732 10732 10733 10733 10733 10733 10733
10761 10761 10760 10761 10761 10750 10738 10741 10749 10752 10752 10751 10751 10752 10752 10751 10749 10749 10750 10750 10749 10748 10747 10746 10745 10744 10744 10744 10745 10746 10747 10747 10747 10746 10745 10744 10745 10745 10744 10743 10743 10743 10744 10745 10745 10744 10742 10741 10740 10739 10738 10738 10739 10738 10738 10737 10736 10736 10737 10737 10735 10733 10732 10730 10729 10728 10728 10728 10727 10727 10727 10727 10726 10726 10726 10727 10728 10729 10729 10729 10730 10730 10730 10730 10730
10759 10759 10757 10755 10753 10742 10734 10738 10745 10746 10746 10746 10746 10747 10746 10745 10743 10743 10746 10746 10745 10744 10743 10742 10741 10740 10740 10740 10740 10741 10742 10742 10742 10741 10741 10741 10742 10741 10740 10739 10739 10740 10742 10742 10741 10740 10739 10738 10737 10737 10736 10736 10737 10737 10736 10735 10734 10734 10735 10735 10732 10730 10729 10727 10726 10726 10725 10725 10725 10724 10724 10724 10723 10723 10723 10724 10725 10726 10726 10726 10726 10727 10727 10727 10727
10759 10756 10752 10749 10743 10736 10732 10735 10740 10741 10740 10740 10741 10742 10741 10740 10739 10739 10741 10742 10740 10739 10737 10736 10737 10737 10736 10735 10735 10736 10736 10737 10738 10737 10737 10737 10737 10737 10736 10736 10737 10738 10739 10739 10737 10736 10736 10735 10735 10734 10734 10734 10734 10734 10734 10733 10732 10732 10734 10732 10729 10727 10725 10724 10723 10723 10723 10723 10722 10722 10721 10720 10719 10719 10720 10720 10722 10723 10723 10722 10722 10723 10723 10723 10723
10759 10754 10746 10741 10735 10731 10729 10730 10734 10735 10734 10734 10735 10736 10736 10735 10735 10735 10735 10736 10735 10733 10732 10731 10731 10731 10731 10731 10732 10732 10733 10733 10733 10733 10733 10733 10733 10733 10733 10734 10734 10734 10735 10735 10734 10734 10733 10732 10732 10731 10731 10731 10731 10731 10731 10730 10729 10730 10731 10729 10725 10723 10721 10721 10721 10720 10721 10720 10718 10718 10717 10715 10715 10716 10717 10718 10718 10719 10719 10719 10718 10719 10719 10719 10719
10756 10750 10739 10732 10728 10727 10726 10726 10726 10727 10728 10729 10730 10731 10731 10731 10730 10730 10730 10730 10728 10727 10727 10727 10726 10726 10727 10728 10729 10729 10729 10729 10729 10729 10729 10729 10729 10729 10730 10730 10730 10730 10731 10731 10731 10731 10731 10730 10730 10730 10730 10729 10729 10728 10728 10728 10727 10727 10727 10724 10721 10719 10717 10718 10719 10718 10718 10717 10714 10712 10712 10712 10713 10714 10715 10715 10715 10715 10715 10715 10715 10715 10715 10715 10715
10748 10742 10731 10724 10721 10721 10721 10721 10720 10720 10722 10725 10727 10727 10727 10727 10726 10726 10726 10724 10722 10722 10722 10723 10723 10723 10723 10724 10725 10725 10725 10725 10725 10725 10726 10725 10725 10725 10726 10725 10726 10727 10727 10728 10728 10728 10728 10727 10727 10727 10727 10726 10726 10725 10725 10725 10724 10723 10722 10719 10717 10715 10714 10715 10716 10715 10716 10715 10712 10709 10709 10710 10711 10712 10711 10712 10712 10712 10712 10712 10712 10712 10712 10712 10712
10738 10731 10721 10714 10714 10715 10716 10717 10717 10717 10719 10721 10723 10722 10721 10721 10722 10722 10721 10719 10718 10717 10718 10719 10719 10719 10720 10720 10721 10721 10721 10721 10721 10722 10722 10721 10721 10722 10722 10722 10722 10724 10725 10725 10725 10725 10725 10724 10723 10723 10723 10723 10722 10721 10721 10721 10719 10719 10717 10715 10714 10712 10712 10713 10712 10712 10712 10713 10711 10708 10708 10708 10709 10709 10709 10709 10709 10709 10709 10709 10709 10709 10709 10709 10708
10723 10716 10711 10707 10708 10710 10711 10713 10714 10715 10715 10716 10717 10716 10715 10716 10716 10718 10716 10714 10713 10713 10715 10716 10716 10715 10716 10716 10717 10718 10718 10718 10718 10719 10719 10718 10718 10719 10719 10719 10720 10721 10722 10722 10722 10722 10721 10721 10720 10720 10719 10719 10718 10717 10716 10715 10713 10713 10713 10712 10712 10711 10710 10710 10709 10709 10709 10709 10708 10706 10706 10706 10706 10706 10706 10706 10706 10706 10706 10706 10706 10706 10706 10705 10705
10709 10706 10705 10703 10704 10708 10709 10710 10710 10710 10710 10710 10710 10710 10710 10710 10711 10712 10711 10710 10709 10709 10711 10712 10712 10712 10712 10713 10714 10715 10715 10715 10715 10716 10716 10716 10715 10715 10716 10716 10717 10718 10719 10719 10719 10718 10718 10717 10717 10716 10715 10715 10714 10713 10711 10710 10708 10708 10709 10710 10710 10709 10708 10707 10706 10705 10705 10706 10705 10705 10704 10704 10704 10704 10703 10703 10703 10703 10704 10703 10703 10703 10702 10702 10701
10701 10700 10700 10698 10700 10705 10707 10706 10705 10704 10704 10705 10705 10704 10705 10705 10706 10707 10706 10705 10705 10707 10708 10709 10710 10709 10709 10710 10711 10712 10713 10713 10713 10713 10713 10712 10712 10712 10713 10714 10715 10715 10715 10716 10715 10715 10714 10713 10713 10712 10711 10710 10710 10708 10707 10705 10705 10705 10707 10709 10709 10707 10706 10705 10704 10703 10702 10703 10703 10703 10703 10702 10702 10701 10700 10700 10700 10700 10700 10700 10700 10700 10700 10699 10698
10693 10694 10694 10695 10697 10700 10702 10702 10701 10701 10700 10700 10701 10700 10700 10701 10702 10702 10702 10701 10701 10703 10705 10706 10707 10707 10707 10707 10708 10709 10709 10709 10709 10709 10709 10709 10709 10709 10709 10710 10711 10711 10711 10712 10712 10711 10710 10709 10709 10708 10707 10706 10705 10704 10702 10701 10702 10703 10705 10708 10708 10705 10703 10702 10702 10701 10700 10700 10701 10701 10701 10700 10699 10699 10698 10697 10697 10697 10697 10697 10697 10697 10697 10697 10697
10687 10689 10690 10693 10694 10695 10696 10697 10698 10698 10697 10696 10696 10696 10696 10696 10697 10698 10697 10697 10696 10698 10700 10701 10703 10703 10704 10704 10704 10704 10705 10705 10705 10705 10705 10706 10706 10706 10706 10707 10707 10707 10708 10708 10708 10707 10706 10705 10705 10704 10703 10702 10701 10700 10699 10698 10699 10701 10703 10706 10706 10702 10699 10698 10698 10698 10698 10698 10698 10698 10697 10697 10696 10695 10695 10694 10694 10693 10694 10695 10695 10694 10694 10695 10695
10685 10686 10686 10688 10690 10692 10693 10693 10694 10693 10692 10691 10691 10691 10691 10691 10692 10693 10693 10693 10692 10693 10694 10696 10696 10697 10698 10699 10699 10700 10700 10700 10700 10700 10701 10701 10702 10703 10703 10704 10704 10704 10704 10704 10704 10704 10704 10703 10701 10700 10699 10698 10697 10697 10696 10696 10696 10698 10700 10702 10701 10698 10695 10694 10693 10694 10696 10696 10695 10695 10694 10694 10693 10692 10691 10691 10690 10690 10690 10691 10692 10692 10692 10692 10693
10683 10682 10682 10683 10686 10687 10689 10689 10689 10688 10687 10687 10687 10687 10687 10686 10687 10689 10689 10689 10689 10688 10689 10689 10690 10690 10691 10692 10693 10694 10695 10696 10697 10696 10696 10696 10698 10699 10699 10700 10700 10701 10701 10701 10701 10701 10700 10699 10698 10696 10695 10694 10693 10693 10692 10692 10693 10694 10696 10697 10696 10694 10692 10691 10690 10690 10693 10694 10693 10692 10692 10691 10690 10689 10689 10688 10687 10687 10686 10687 10689 10689 10690 10690 10690
10678 10679 10679 10679 10681 10682 10684 10684 10683 10683 10683 10682 10682 10682 10681 10681 10682 10684 10685 10685 10685 10684 10684 10684 10684 10685 10685 10686 10686 10688 10689 10691 10692 10692 10692 10692 10694 10694 10695 10696 10696 10697 10697 10698 10698 10697 10697 10695 10694 10692 10691 10690 10690 10689 10688 10688 10689 10691 10692 10693 10692 10691 10690 10689 10688 10687 10688 10690 10690 10689 10689 10689 10688 10687 10686 10686 10685 10684 10683 10683 10684 10686 10687 10687 10687
10673 10675 10675 10675 10676 10677 10679 10679 10678 10678 10678 10679 10678 10676 10675 10676 10678 10679 10680 10680 10681 10681 10681 10681 10680 10680 10680 10681 10681 10682 10683 10684 10686 10687 10687 10688 10690 10690 10691 10691 10692 10692 10693 10693 10694 10693 10692 10691 10690 10688 10687 10687 10686 10685 10684 10683 10684 10686 10688 10688 10687 10687 10687 10687 10686 10685 10685 10686 10687 10686 10686 10685 10684 10684 10684 10684 10683 10681 10680 10680 10680 10682 10683 10684 10684
10670 10670 10670 10671 10672 10673 10674 10675 10674 10673 10673 10674 10674 10671 10670 10672 10674 10675 10675 10676 10677 10677 10678 10677 10677 10677 10677 10678 10678 10679 10679 10679 10680 10681 10682 10684 10685 10685 10686 10687 10687 10688 10688 10688 10689 10688 10688 10687 10685 10684 10683 10682 10681 10680 10679 10679 10679 10680 10682 10683 10682 10682 10683 10683 10683 10683 10682 10682 10682 10682 10682 10682 10681 10680 10680 10680 10679 10678 10678 10677 10676 10677 10679 10680 10681
10666 10665 10666 10666 10667 10668 10670 10671 10671 10670 10670 10670 10670 10667 10666 10669 10670 10671 10672 10672 10673 10674 10674 10674 10674 10674 10675 10675 10676 10676 10676 10676 10677 10677 10678 10679 10680 10681 10682 10682 10683 10683 10683 10684 10684 10684 10683 10682 10681 10680 10678 10677 10676 10675 10675 10674 10674 10675 10676 10677 10678 10678 10679 10679 10680 10679 10679 10678 10678 10678 10678 10678 10677 10676 10676 10676 10675 10675 10675 10674 10673 10673 10674 10675 10676
10661 10661 10661 10662 10664 10665 10666 10666 10667 10667 10667 10668 10667 10664 10663 10666 10667 10667 10668 10668 10669 10669 10670 10671 10671 10672 10672 10672 10672 10673 10673 10674 10674 10674 10675 10676 10676 10677 10677 10678 10678 10678 10679 10679 10679 10679 10679 10678 10677 10676 10674 10672 10671 10670 10670 10670 10669 10670 10670 10671 10673 10674 10674 10675 10675 10675 10675 10674 10673 10673 10673 10673 10673 10671 10671 10671 10670 10670 10670 10670 10670 10669 10669 10670 10671
10655 10656 10656 10657 10659 10661 10661 10662 10663 10664 10664 10665 10665 10663 10661 10662 10663 10664 10665 10665 10665 10666 10667 10667 10668 10668 10668 10669 10669 10669 10670 10670 10670 10671 10671 10672 10673 10673 10673 10674 10674 10674 10674 10674 10674 10674 10674 10673 10672 10671 10669 10668 10667 10666 10665 10665 10665 10665 10665 10666 10667 10669 10669 10670 10670 10671 10671 10670 10669 10668 10668 10668 10668 10666 10665 10665 10664 10664 10664 10665 10665 10665 10664 10665 10666
10650 10650 10651 10653 10655 10656 10658 10658 10659 10660 10660 10661 10661 10660 10659 10659 10660 10661 10662 10662 10662 10662 10663 10663 10663 10664 10664 10664 10665 10665 10666 10666 10666 10666 10667 10668 10669 10669 10669 10669 10669 10669 10669 10669 10669 10669 10669 10668 10667 10666 10665 10663 10662 10662 10661 10661 10661 10661 10661 10661 10662 10663 10664 10664 10665 10665 10665 10665 10663 10662 10661 10661 10662 10661 10660 10659 10658 10658 10659 10659 10659 10660 10660 10660 10660
10645 10645 10646 10648 10650 10652 10653 10654 10655 10655 10655 10656 10656 10656 10655 10655 10656 10658 10658 10658 10658 10659 10659 10658 10659 10659 10660 10660 10660 10661 10661 10661 10661 10661 10662 10664 10665 10664 10664 10664 10664 10664 10664 10664 10665 10665 10665 10664 10663 10661 10660 10659 10658 10658 10657 10657 10657 10657 10657 10657 10657 10658 10659 10659 10659 10659 10660 10659 10658 10657 10655 10655 10655 10655 10655 10655 10654 10653 10653 10653 10653 10654 10655 10656 10656
10641 10641 10642 10644 10645 10647 10648 10649 10650 10650 10651 10651 10651 10652 10651 10651 10652 10653 10654 10654 10654 10655 10655 10654 10654 10654 10655 10655 10655 10656 10656 10657 10657 10657 10658 10659 10660 10660 10660 10660 10660 10660 10660 10660 10660 10661 10660 10660 10658 10657 10656 10656 10655 10654 10654 10653 10653 10653 10653 10653 10653 10654 10654 10654 10654 10654 10655 10654 10653 10652 10650 10648 10648 10648 10649 10650 10649 10648 10647 10647 10648 10648 10650 10651 10651